STARLINK-30060 (55707 NORAD) Tracking and Keplerian Element Data

This shows tracking and keplerian element data for the satellite.

Feedback or suggestion? Click here.




ElementValue
Catalog55707
NameSTARLINK-30060
Epoch Orbit130
Epoch Day62.91667824
Epoch Year2023
RAAN259.6096
Inclination43.0106
Eccentricity0.0001429
Argument of Perigee282.4429
Mean Anonmoly180.172
Mean Motion15.6609243
Decay Rate-0.00793069
L11 55707U 23026N 23062.91667824 -.00793069 00000+0 -82687-2 0 9991
L22 55707 43.0106 259.6096 0001429 282.4429 180.1720 15.66092430 1303



Live tracking and technical data element details for STARLINK-30060 (NORAD 55707). STARLINK-30060 can be tracked NOW for your location showing map with azimuth and elevation plus other details from your city location.







IsCatalogInMostPopularTable: catalog: 55707, numindb: 1
Update: records affected: 1



GetName: 55707 STARLINK-30060

Hit Count: updated at: Mon, 20 Mar 2023 12:15:14 GMT